Terug naar catalogus

FENGYUN 1C DEB

ActiefPO
NORAD 30293·DEBRIS·🇨🇳 China

Gelanceerd May 10, 1999 vanaf Taiyuan Satellite Launch Center

Loading…

Volgende Passages (komende 24 uur)

TLE

VersSource: Space-Track

Epoch: Sep 13, 2026, 20:34 UTC

1 30293U 99025ZE  26256.85729155  .00001483  00000-0  38090-3 0  9994
2 30293  99.2349 119.3441 0075235  17.4318 357.3582 14.50296155 29624

Volg FENGYUN 1C DEB in realtime met AllMySat

Download on the App Store